Weather in Inverness

United Kingdom     57°28′37″N   4°13′39″W
temp.,
°C
wind,
m/s
gust,
m/s
humid.,
%
clouds,
%
prec.,
mm/h
press.,
hPa
HPBL,
m
11 april, sun
sun1101:00−2wsw23818 0.1 102171
04:00−3wsw238321 0.0 102183
07:00−2wsw238385 0.0 102299
10:00+2wnw1262100 0.1 1021735
13:00+4nne1252100 0.8 10211093
16:00+3nne2360100 0.9 10221092
19:00+1ne127756 1.7 1023175
22:00−1w11805 0.1 102535
12 april, mon
mon1201:00−2wsw11823 0.1 102640
04:00−2sw22823 0.0 102671
07:00−2wsw23803 0.0 102791
10:00+3w22533 0.0 1028873
13:00+6e01402 0.0 10281219
16:00+6ese113811 0.0 10281377
19:00+5ene225124 0.0 102874
22:000n117330 0.0 103054
13 april, tue
tue1301:00−1wsw1183100 0.0 103132
04:00−1sw228469 0.0 103163
07:00−1sw237486 0.0 103194
10:00+5wsw12469 0.0 1032473
13:00+8nnw024429 0.0 10311016
16:00+8ne335575 0.0 1030686
19:00+5ne226979 0.0 1032126
22:00+2e017558 0.0 103327
14 april, wed
wed1401:00+2ssw118086 0.0 103326
04:00+3ssw238485 0.0 103487
07:00+3ssw238496 0.0 103484
10:00+7wsw126795 0.0 1034186
13:00+10w014949 0.0 10341254
16:00+11ese214670 0.0 10341407
19:00+7ne457114 0.0 1035237
22:00+4ne239017 0.0 103664
15 april, thu
thu1501:00+3ssw119035 0.0 103722
04:00+2ssw11915 0.0 103623
07:00+2ssw11885 0.0 103728
10:00+7ne11665 0.0 1036397
13:00+10ne335742 0.0 10351050
16:00+9ene336433 0.1 1035577
19:00+9se136339 0.1 1034303
22:00+4s33705 0.0 103553